Location: Unspecified
(0.0000°N, 0.0000°E)
Time: 23:17:03
(UTC+00:00)

Tiros 1 - Visible Passes

Search period start: 26 April 2017 00:00
Search period end: 06 May 2017 00:00
Orbit: 631 x 665 km, 48.4° (Epoch: 25 April)

Date Brightness Start Highest point End Pass type
(mag) Time Alt. Az. Time Alt. Az. Time Alt. Az.
26 Apr 7.4 18:49:55 10° NNW 18:54:34 52° NE 18:57:30 22° ESE visible
26 Apr 10.1 20:34:31 10° WSW 20:35:14 11° WSW 20:35:14 11° WSW visible
27 Apr 8.1 19:16:09 10° NW 19:20:44 45° SW 19:23:27 22° S visible
28 Apr 9.7 19:44:21 10° W 19:46:58 14° SW 19:49:23 11° SSW visible
29 Apr 8.0 18:26:23 10° NW 18:31:01 51° SW 18:35:43 10° SSE visible
30 Apr 9.3 04:58:34 10° S 05:02:10 22° SE 05:05:45 10° ENE visible
30 Apr 9.7 18:54:17 10° W 18:57:15 16° SW 19:00:14 10° SSW visible
01 May 7.3 05:23:44 10° SW 05:28:22 76° SE 05:32:57 10° NE visible
02 May 9.3 04:10:30 15° SSE 04:12:29 20° SE 04:15:51 10° E visible
03 May 7.3 04:36:24 29° SSW 04:38:40 67° SE 04:43:15 10° NE visible
04 May 9.8 03:24:32 15° ESE 03:24:32 15° ESE 03:25:55 10° E visible
04 May 7.9 05:02:16 19° WSW 05:04:49 34° NW 05:09:00 10° NNE visible
05 May 8.3 03:50:20 41° ENE 03:50:20 41° ENE 03:53:32 10° NE visible
05 May 9.3 05:30:22 10° WNW 05:31:03 10° NW 05:31:45 10° NW visible
